Simultaneous Nadir Overpasses (SNOs) Predictions

Prediction of SNOs between AQUA and NOAA-19 Satellite Orbit:

Table of predicted SNOs for the next 14.0 days since TLE Epoch: 3/18/2016
Index Date (AQUA) Time (AQUA) Lat,Lon (AQUA) SZA (AQUA ) Date (NOAA-19) Time (NOAA-19) Lat,Lon (NOAA-19) SZA (NOAA-19 ) Distance(km) Time Diff (sec)
1 03/18/2016 13:11:54 80.76, -55.90 83.53 03/18/2016 13:10:45 80.76, -55.94 83.56 0.63 69
2 03/18/2016 14:01:19 -80.72, 112.20 96.57 03/18/2016 14:01:41 -80.73, 112.21 96.58 0.49 22
3 03/20/2016 18:45:41 -80.75, 40.76 97.39 03/20/2016 18:44:50 -80.76, 40.69 97.35 1.50 51
4 03/20/2016 19:35:07 80.73,-151.35 82.56 03/20/2016 19:35:51 80.73,-151.34 82.54 0.44 44
5 03/23/2016 00:19:29 80.77, 137.12 81.75 03/23/2016 00:18:59 80.76, 137.23 81.75 2.40 30
6 03/23/2016 01:08:54 -80.72, -54.73 98.35 03/23/2016 01:09:57 -80.73, -54.90 98.35 3.21 63
7 03/25/2016 05:53:16 -80.76,-126.29 99.15 03/25/2016 05:53:05 -80.75,-126.15 99.17 2.80 11
8 03/27/2016 11:27:02 80.74, -29.43 79.92 03/27/2016 11:27:12 80.74, -29.41 79.92 0.57 10
9 03/29/2016 16:11:23 80.76,-100.80 79.10 03/29/2016 16:10:19 80.76,-100.61 79.11 3.25 64
10 03/29/2016 17:00:49 -80.74, 67.08 100.96 03/29/2016 17:01:19 -80.74, 67.20 100.99 2.22 30
11 03/31/2016 21:45:10 -80.77, -4.33 101.77 03/31/2016 21:44:27 -80.76, -4.17 101.77 2.91 43




NCC Satellite Simultaneous Nadir Overpasses (SNOs) Prediction Service
